Theta_e
361 362 362 365 366 364 359 356 354 339 340 348 348 357 355 356 356 357 357 354 350 349 347 347 348 350 351 352 351 351 350 350 349 349 346 344 340 338
358 358 359 357 360 363 360 356 354 349 342 347 348 353 355 354 358 358 358 354 350 347 346 345 346 347 349 349 348 348 348 348 345 343 341 340 340 339
360 359 361 362 357 356 355 353 353 351 345 348 351 352 354 355 355 358 360 360 357 346 345 345 343 344 346 346 345 345 345 342 340 340 339 339 338 337
348 352 353 353 351 351 351 350 350 354 349 346 351 349 352 357 358 359 356 354 356 350 344 342 341 341 341 341 341 340 337 337 337 337 337 336 336 335
345 346 348 347 344 346 350 349 349 350 352 346 347 351 350 351 350 354 355 354 354 350 341 340 339 339 338 336 336 333 330 331 330 331 332 333 333 334
345 347 347 347 346 346 344 347 345 345 345 344 346 346 349 348 341 339 341 348 347 350 348 345 341 340 338 334 332 329 325 325 325 325 325 326 329 330
343 346 345 345 343 342 347 344 344 344 346 345 345 344 343 343 343 344 342 343 347 348 346 343 341 340 337 333 334 331 327 326 323 322 322 322 323 325
343 345 346 345 347 341 340 341 343 344 343 342 342 342 343 345 346 343 342 341 336 347 343 339 338 332 331 331 331 328 325 325 324 322 321 320 320 321
344 343 345 348 344 345 342 340 341 338 339 343 340 341 340 342 343 339 338 336 336 340 338 333 333 328 329 328 325 324 324 324 323 322 321 320 319 318
343 344 345 345 340 337 341 345 348 347 345 343 343 342 343 343 344 340 338 340 340 339 339 327 327 323 324 324 324 323 322 323 322 320 319 317 315 314
345 341 341 340 327 327 339 337 339 341 337 334 334 332 332 333 335 339 334 334 333 332 334 328 324 321 322 322 324 324 322 321 319 319 319 316 313 312
342 341 326 329 323 322 338 337 336 338 340 343 341 339 338 337 335 340 339 333 335 330 333 327 323 324 319 322 323 325 324 318 316 316 317 315 311 321
339 337 337 322 318 317 320 337 336 335 339 338 337 335 335 334 332 333 335 334 332 332 335 333 325 324 321 317 321 324 324 321 324 318 312 311 311 319
336 338 338 319 317 317 327 319 322 333 341 336 333 331 329 329 329 331 333 334 333 330 334 331 325 323 320 318 316 322 324 324 322 321 321 311 310 313
338 329 322 319 323 326 321 322 328 338 336 334 330 329 330 331 333 332 332 335 329 329 331 331 327 325 323 319 317 319 318 319 320 319 318 319 320 325
331 338 332 327 322 326 334 335 338 337 335 332 333 334 335 331 326 328 328 330 327 323 326 329 326 324 320 321 321 317 317 315 320 320 322 324 326 328
321 342 342 341 339 340 339 337 337 338 335 333 333 330 329 329 329 327 331 327 324 323 321 323 324 324 323 320 317 317 318 319 321 322 323 320 325 327
337 338 337 338 337 338 337 337 336 334 336 335 329 329 331 325 329 325 329 327 325 327 325 323 322 321 321 322 323 320 321 322 323 322 323 324 324 326
342 341 338 337 337 337 337 337 337 336 338 336 331 327 331 329 328 327 326 326 325 326 327 329 328 326 322 318 322 312 324 330 326 325 326 325 323 324
342 341 340 339 339 338 336 335 337 335 335 334 335 330 332 328 326 326 327 321 323 325 325 322 326 325 320 319 319 318 307 328 326 325 324 327 325 313
339 342 344 342 340 341 339 336 334 331 331 331 330 330 329 326 328 325 326 313 320 325 323 321 328 321 325 327 322 318 317 308 320 328 327 323 320 321
341 342 345 344 343 344 342 339 332 331 332 331 330 329 326 327 326 324 324 322 323 326 327 328 329 328 324 318 319 321 320 321 312 313 315 314 321 314
345 345 345 345 345 345 344 341 332 332 331 332 329 332 332 326 328 326 325 324 326 328 324 321 321 320 320 321 319 320 322 317 317 319 321 313 312 312
Wind_Speed
8 8 7 6 5 6 6 6 4 8 8 4 4 4 5 6 10 12 13 14 18 19 17 18 18 17 18 18 16 13 12 12 13 16 16 16 15 15
7 8 7 6 6 4 4 5 6 7 9 5 5 5 4 6 7 11 12 9 13 16 16 17 17 17 18 18 16 14 12 14 17 17 16 16 15 14
8 8 8 5 4 3 2 4 6 7 9 8 6 6 7 8 7 9 10 11 10 15 17 17 18 18 18 18 17 16 18 18 17 17 17 16 15 13
7 6 8 4 3 3 2 4 5 6 8 11 9 7 8 7 7 6 6 6 9 7 11 13 15 16 16 18 19 20 18 18 17 17 16 16 14 13
6 5 6 5 7 6 5 3 5 5 6 8 10 6 5 2 5 5 5 6 7 8 9 12 13 16 18 18 19 18 17 16 14 14 13 13 13 12
6 9 9 8 7 8 6 6 5 4 2 7 9 9 6 4 2 3 6 8 9 8 9 7 8 14 16 19 21 21 17 16 15 10 10 11 10 11
5 6 6 8 9 11 6 4 6 5 7 9 10 9 8 6 7 5 7 9 8 7 4 3 4 6 8 16 20 20 15 15 11 13 14 11 10 9
5 5 7 7 5 6 7 8 10 7 8 8 8 9 9 8 7 8 7 5 4 4 5 3 3 4 5 6 21 24 22 15 9 12 12 11 10 10
4 3 2 2 3 7 8 8 5 6 10 7 8 10 8 6 7 6 6 5 6 3 3 2 1 3 3 8 25 24 22 16 12 10 9 10 11 10
4 5 5 6 8 8 8 7 6 5 6 3 5 6 6 6 7 5 4 4 1 3 5 3 2 3 6 7 21 20 15 10 11 11 10 11 9 8
5 6 7 7 9 9 5 6 6 4 2 2 3 5 7 7 6 3 3 4 3 3 5 4 3 5 4 8 8 13 8 4 8 9 9 10 9 9
4 5 10 8 8 8 6 6 6 7 6 7 5 5 6 6 9 4 3 4 4 3 6 4 6 5 5 2 7 8 5 6 7 7 10 10 11 4
5 4 5 7 8 10 8 6 5 6 5 4 5 5 5 6 5 6 6 4 3 3 4 5 5 3 3 8 4 6 7 4 5 5 8 10 11 4
4 4 5 8 7 6 6 8 6 4 4 5 6 5 4 4 5 5 6 6 6 5 4 2 2 4 8 7 8 5 6 5 6 4 5 4 5 6
5 5 6 6 6 0 8 8 4 5 5 6 4 3 3 4 4 3 6 8 11 10 7 5 5 7 5 8 5 4 6 3 4 6 4 5 4 6
6 4 5 4 3 3 4 4 6 5 4 4 3 4 4 4 4 4 4 6 8 7 10 12 10 9 9 6 8 7 7 4 3 3 5 5 6 5
6 2 4 4 4 4 4 4 4 4 5 3 4 3 3 3 4 3 5 7 7 5 7 7 10 11 9 8 7 7 4 4 4 4 4 4 6 6
2 4 5 5 5 5 5 4 4 4 5 4 3 3 3 4 6 4 5 6 6 8 8 5 6 7 6 7 8 5 3 3 5 5 5 6 6 5
2 3 4 4 5 5 5 5 5 5 3 4 3 3 2 6 5 5 6 5 7 6 6 7 7 7 7 5 3 11 6 5 7 8 6 5 5 6
3 2 3 3 4 4 5 5 4 4 3 3 2 1 3 3 4 5 3 4 3 6 6 3 1 3 3 4 4 2 10 4 5 6 6 4 2 4
3 2 0 2 3 2 3 4 4 2 2 1 1 0 3 2 3 2 4 4 1 4 6 2 4 2 5 6 7 4 1 6 2 6 6 5 6 5
3 2 1 0 1 1 1 2 1 1 1 0 1 2 2 2 3 3 3 5 1 4 5 4 4 2 4 3 7 7 5 5 4 4 4 2 2 4
2 1 1 1 1 0 1 1 2 1 0 1 2 2 4 3 4 1 3 4 2 5 3 4 2 3 4 2 2 5 7 5 5 5 5 6 6 6
Wind_Direction
263 257 255 259 240 226 222 236 236 279 281 260 271 201 226 229 235 230 232 214 213 218 219 219 220 217 217 218 215 210 213 215 198 164 159 163 169 165
246 251 252 258 270 266 252 253 252 258 274 287 244 257 240 238 229 233 232 231 207 218 211 213 214 214 215 209 201 196 188 167 154 155 159 160 164 166
248 251 258 261 264 262 255 254 245 242 256 265 261 242 248 235 241 228 233 229 226 213 218 211 214 214 210 209 191 178 167 159 158 160 160 160 159 163
340 330 318 319 298 255 228 267 272 256 260 271 271 249 234 250 254 249 245 243 252 211 221 235 228 213 207 199 177 170 163 159 158 159 159 158 158 165
289 267 251 234 263 273 274 268 274 273 263 265 271 261 261 230 249 271 258 260 251 258 252 250 232 221 197 186 172 165 156 153 149 152 157 155 161 167
282 276 262 244 272 279 265 269 248 243 273 259 264 269 268 250 228 235 250 241 256 251 237 244 220 215 198 174 162 147 137 137 137 152 152 166 168 174
284 280 244 245 277 267 266 278 253 246 251 262 266 270 271 258 259 268 265 283 273 244 229 192 203 189 177 160 149 131 121 129 155 159 181 165 181 177
300 278 260 244 270 322 310 274 264 260 254 264 282 285 285 287 296 284 276 269 273 215 210 205 177 146 139 142 140 138 138 160 186 181 176 177 190 181
327 331 320 346 349 351 330 298 279 244 246 282 286 285 293 277 280 264 231 241 248 152 180 182 125 124 136 148 139 144 156 173 188 171 170 187 190 191
24 11 356 356 24 351 335 342 1 22 19 323 284 293 300 310 292 263 261 252 264 166 177 156 112 90 106 132 153 156 160 184 181 169 169 209 186 188
54 43 15 13 6 343 347 4 3 27 331 356 3 1 338 329 295 266 229 221 212 204 190 141 142 107 110 147 155 157 154 189 173 169 184 195 183 172
65 65 49 32 4 6 11 8 5 12 349 360 17 17 8 12 9 346 325 258 246 196 194 147 150 146 123 109 142 143 177 175 170 186 186 177 167 155
42 35 41 10 11 9 350 18 355 315 359 17 38 23 18 15 13 17 11 349 324 270 195 170 157 134 90 130 121 144 161 147 177 177 167 171 176 201
40 30 40 4 348 1 353 343 337 331 41 44 49 29 17 15 22 25 33 43 32 19 335 122 104 152 135 125 132 140 141 144 151 136 148 124 123 65
17 348 313 316 321 187 22 345 341 32 37 63 43 31 19 23 35 17 35 52 44 34 39 48 119 111 103 113 109 114 125 135 132 133 142 167 162 191
353 351 334 312 284 305 333 29 38 46 44 66 58 30 60 49 48 15 29 38 58 45 42 45 53 78 86 80 111 120 121 136 118 138 154 162 195 197
323 339 10 14 11 9 26 30 37 40 57 32 49 42 56 60 64 26 60 73 63 51 53 52 60 67 71 110 105 122 123 105 158 145 167 162 200 190
239 10 24 24 23 8 4 15 31 34 38 82 62 56 71 55 79 44 54 51 63 87 92 75 86 88 82 57 54 128 162 129 172 168 191 197 183 180
306 18 20 26 29 25 12 5 6 37 32 71 56 94 82 99 110 91 94 94 87 98 88 119 129 130 120 100 102 25 170 163 161 180 200 206 205 164
293 326 23 30 37 28 25 23 9 30 13 1 98 69 89 82 142 125 112 104 127 122 108 83 21 76 105 133 118 82 12 184 188 163 176 167 58 68
308 295 326 25 47 38 41 42 48 31 0 50 62 139 74 156 143 38 78 23 61 135 114 61 60 26 123 154 129 104 53 45 28 187 168 195 189 177
322 306 281 272 22 41 33 64 52 25 56 110 199 169 143 230 124 184 157 114 199 99 91 90 114 98 102 127 125 127 141 136 127 47 356 308 205 216
347 333 15 275 259 86 348 345 178 222 143 195 198 183 192 168 160 157 157 108 170 101 64 108 92 41 66 51 75 126 131 157 146 164 180 194 265 273